TimeICT,TemperatureF,Dew PointF,Humidity,Sea Level PressureIn,VisibilityMPH,Wind Direction,Wind SpeedMPH,Gust SpeedMPH,PrecipitationIn,Events,Conditions,WindDirDegrees,DateUTC
12:00 AM,77.0,73.4,89,29.86,4.3,Variable,2.3,-,N/A,Thunderstorm,Thunderstorm,0,2012-11-05 17:00:00
12:30 AM,77.0,73.4,89,29.86,4.3,Calm,Calm,-,N/A,Thunderstorm,Thunderstorm,0,2012-11-05 17:30:00
1:00 AM,77,75,92,29.83,5,Calm,Calm,,,,Partly Cloudy,,2012-11-05 18:00:00
1:00 AM,77.0,73.4,89,29.86,5.0,Calm,Calm,-,N/A,Thunderstorm,Thunderstorm,0,2012-11-05 18:00:00
1:30 AM,75.2,73.4,94,29.86,5.0,Calm,Calm,-,N/A,,Mostly Cloudy,0,2012-11-05 18:30:00
2:00 AM,75.2,73.4,94,29.83,5.0,Calm,Calm,-,N/A,,Mostly Cloudy,0,2012-11-05 19:00:00
2:30 AM,75.2,73.4,94,29.83,5.0,Calm,Calm,-,N/A,,Mostly Cloudy,0,2012-11-05 19:30:00
3:00 AM,75.2,73.4,94,29.83,5.0,Calm,Calm,-,N/A,,Mostly Cloudy,0,2012-11-05 20:00:00
4:00 AM,75.2,73.4,94,29.83,5.0,Calm,Calm,-,N/A,,Mostly Cloudy,0,2012-11-05 21:00:00
4:30 AM,75.2,73.4,94,29.83,5.0,Calm,Calm,-,N/A,,Mostly Cloudy,0,2012-11-05 21:30:00
5:00 AM,75.2,73.4,94,29.83,5.0,Calm,Calm,-,N/A,,Mostly Cloudy,0,2012-11-05 22:00:00
5:30 AM,75.2,73.4,94,29.83,5.0,Calm,Calm,-,N/A,,Mostly Cloudy,0,2012-11-05 22:30:00
6:00 AM,75.2,73.4,94,29.83,5.0,Calm,Calm,-,N/A,,Mostly Cloudy,0,2012-11-05 23:00:00
6:30 AM,75.2,73.4,94,29.86,5.0,Calm,Calm,-,N/A,,Mostly Cloudy,0,2012-11-05 23:30:00
7:00 AM,76,74,90,29.82,6,Calm,Calm,,,,Scattered Clouds,,2012-11-06 00:00:00
7:30 AM,78.8,77.0,94,29.89,5.6,Calm,Calm,-,N/A,,Mostly Cloudy,0,2012-11-06 00:30:00
8:00 AM,80.6,75.2,84,29.89,5.6,Variable,2.3,-,N/A,,Scattered Clouds,0,2012-11-06 01:00:00
8:30 AM,84.2,75.2,74,29.92,5.6,Calm,Calm,-,N/A,,Mostly Cloudy,0,2012-11-06 01:30:00
9:00 AM,84.2,75.2,74,29.92,5.6,Variable,2.3,-,N/A,,Mostly Cloudy,0,2012-11-06 02:00:00
9:30 AM,86.0,77.0,74,29.92,5.6,West,4.6,-,N/A,,Mostly Cloudy,270,2012-11-06 02:30:00
10:00 AM,86.0,75.2,70,29.92,5.6,West,5.8,-,N/A,,Mostly Cloudy,280,2012-11-06 03:00:00
10:30 AM,87.8,71.6,58,29.92,5.6,NE,3.5,-,N/A,,Mostly Cloudy,40,2012-11-06 03:30:00
11:00 AM,87.8,73.4,62,29.89,6.2,ENE,5.8,-,N/A,,Mostly Cloudy,70,2012-11-06 04:00:00
11:30 AM,86.0,75.2,70,29.86,6.2,WNW,3.5,-,N/A,,Mostly Cloudy,300,2012-11-06 04:30:00
12:00 PM,86.0,75.2,70,29.86,6.2,Variable,4.6,-,N/A,,Mostly Cloudy,0,2012-11-06 05:00:00
12:30 PM,86.0,75.2,70,29.83,6.2,NW,4.6,-,N/A,,Mostly Cloudy,320,2012-11-06 05:30:00
1:00 PM,90,78,60,29.82,6,East,8.1,,,,Scattered Clouds,80,2012-11-06 06:00:00
1:00 PM,87.8,77.0,70,29.83,6.2,Variable,4.6,-,N/A,,Mostly Cloudy,0,2012-11-06 06:00:00
1:30 PM,86.0,75.2,70,29.80,6.2,NW,4.6,-,N/A,,Mostly Cloudy,320,2012-11-06 06:30:00
2:00 PM,86.0,75.2,70,29.80,6.2,ENE,3.5,-,N/A,,Mostly Cloudy,60,2012-11-06 07:00:00
2:30 PM,87.8,71.6,58,29.77,6.2,Variable,4.6,-,N/A,,Mostly Cloudy,0,2012-11-06 07:30:00
3:00 PM,87.8,75.2,66,29.77,6.2,Variable,3.5,-,N/A,,Mostly Cloudy,0,2012-11-06 08:00:00
3:30 PM,87.8,75.2,66,29.77,6.2,West,8.1,-,N/A,,Mostly Cloudy,270,2012-11-06 08:30:00
4:00 PM,84.2,75.2,74,29.77,5.6,WNW,8.1,-,N/A,,Mostly Cloudy,300,2012-11-06 09:00:00
4:30 PM,84.2,75.2,74,29.77,5.0,WNW,8.1,-,N/A,Thunderstorm,Thunderstorm,300,2012-11-06 09:30:00
5:00 PM,84.2,75.2,74,29.77,4.3,NW,6.9,-,N/A,Rain,Rain,310,2012-11-06 10:00:00
5:30 PM,82.4,75.2,79,29.77,5.0,NE,4.6,-,N/A,,Mostly Cloudy,50,2012-11-06 10:30:00
6:00 PM,82.4,75.2,79,29.80,5.6,NNE,4.6,-,N/A,,Mostly Cloudy,20,2012-11-06 11:00:00
6:30 PM,80.6,75.2,84,29.80,5.6,Calm,Calm,-,N/A,,Mostly Cloudy,0,2012-11-06 11:30:00
7:00 PM,81,78,90,29.77,6,ENE,2.3,,,,Scattered Clouds,60,2012-11-06 12:00:00
7:00 PM,80.6,75.2,84,29.80,5.6,Variable,2.3,-,N/A,,Mostly Cloudy,0,2012-11-06 12:00:00
7:30 PM,78.8,75.2,89,29.83,5.6,Calm,Calm,-,N/A,,Mostly Cloudy,0,2012-11-06 12:30:00
8:00 PM,78.8,75.2,89,29.83,5.6,Calm,Calm,-,N/A,,Mostly Cloudy,0,2012-11-06 13:00:00
8:30 PM,80.6,73.4,79,29.86,5.6,NNE,3.5,-,N/A,,Mostly Cloudy,30,2012-11-06 13:30:00
9:00 PM,80.6,75.2,84,29.86,5.6,East,2.3,-,N/A,,Mostly Cloudy,80,2012-11-06 14:00:00
9:30 PM,78.8,75.2,89,29.86,5.6,Calm,Calm,-,N/A,,Mostly Cloudy,0,2012-11-06 14:30:00
11:00 PM,77.0,75.2,94,29.83,5.6,Calm,Calm,-,N/A,,Mostly Cloudy,0,2012-11-06 16:00:00
11:30 PM,77.0,75.2,94,29.83,5.6,Calm,Calm,-,N/A,,Mostly Cloudy,0,2012-11-06 16:30:00